Newark, NJ

4:50 AM EDT on October 22, 2019 (GMT -0400)
Newark International

Weather History for KEWR - May, 2019

Change the Weather History Date:

Saturday, May 4, 2019

  Actual Average Record
Temperature  
Mean Temperature 62 °F 59 °F  
Max Temperature 70 °F 69 °F 94 °F (2001)
Min Temperature 54 °F 50 °F 37 °F (1941)
Degree Days  
Heating Degree Days 3 7  
Month to date heating degree days 26 29  
Since 1 July heating degree days 4620 4749  
Cooling Degree Days 0 1  
Month to date cooling degree days 0 4  
Year to date cooling degree days 15 16  
Growing Degree Days 12 (Base 50)    
Moisture  
Dew Point 55 °F    
Average Humidity 84    
Maximum Humidity 100    
Minimum Humidity 68    
Precipitation  
Precipitation 0.07 in 0.12 in 0.92 in (1975)
Month to date precipitation 0.23 0.48  
Year to date precipitation 15.88 15.28  
Snow  
Snow 0.00 in 0.00 in 0.00 in (2002)
Month to date snowfall 0.0 0.0  
Since 1 July snowfall 22.0 28.5  
Snow Depth 0.00 in    
Sea Level Pressure  
Sea Level Pressure 29.87 in    
Wind  
Wind Speed 4 mph (ESE)    
Max Wind Speed 13 mph    
Max Gust Speed 17 mph    
Visibility 4 miles    
Events Rain , Thunderstorm    
T = Trace of Precipitation, MM = Missing Value Source: NWS Daily Summary

Daily Weather History Graph

Daily Weather History Graph

Search for Another Location

Airport or City:

Astronomy

May. 04, 2019 Rise Set
Actual Time 5:51 AM EDT 7:55 PM EDT
Civil Twilight 5:21 AM EDT 8:25 PM EDT
Nautical Twilight 4:45 AM EDT 9:02 PM EDT
Astronomical Twilight 4:05 AM EDT 9:42 PM EDT
Moon 6:02 AM EDT (5/4) 7:42 PM EDT (5/4)
Length of Visible Light 15h 03m
Length of Day
14h 03m
Waning Crescent, 0% of the Moon is Illuminated
May 4
Waning Crescent
May 4
New
May 11
First Quarter
May 18
Full
May 26
Last Quarter

Hourly Weather History & Observations

Time (EDT) Temp. Dew Point Humidity Pressure Visibility Wind Dir Wind Speed Gust Speed Precip Events Conditions
12:51 AM 54.0 °F 53.1 °F 97% 29.97 in 1.0 mi NE 3.5 mph - 0.01 in Rain Light Rain
1:21 AM 55.0 °F 53.1 °F 93% 29.96 in 1.0 mi Calm Calm - 0.02 in Rain , Thunderstorm Light Rain
1:32 AM 55.0 °F 54.0 °F 96% 29.96 in 2.0 mi Calm Calm - 0.02 in Rain Light Rain
1:51 AM 55.0 °F 54.0 °F 96% 29.94 in 2.0 mi ENE 3.5 mph - 0.02 in   Overcast
2:51 AM 55.0 °F 53.1 °F 93% 29.90 in 2.0 mi ENE 5.8 mph - N/A   Overcast
3:51 AM 54.0 °F 53.1 °F 97% 29.91 in 2.0 mi SE 3.5 mph - N/A   Overcast
4:51 AM 54.0 °F 53.1 °F 97% 29.88 in 2.0 mi Calm Calm - N/A   Overcast
5:26 AM 54.0 °F 53.1 °F 97% 29.88 in 2.0 mi Calm Calm - N/A   Overcast
5:51 AM 54.0 °F 53.1 °F 97% 29.89 in 2.0 mi Calm Calm - N/A   Overcast
6:51 AM 55.0 °F 53.1 °F 93% 29.90 in 2.0 mi SW 3.5 mph - 0.00 in   Overcast
7:07 AM 55.0 °F 54.0 °F 96% 29.90 in 2.0 mi Calm Calm - N/A   Overcast
7:51 AM 55.9 °F 54.0 °F 93% 29.91 in 2.0 mi SSE 3.5 mph - 0.00 in Rain Light Rain
8:51 AM 57.0 °F 55.0 °F 93% 29.90 in 2.0 mi Calm Calm - 0.01 in   Overcast
9:51 AM 59.0 °F 55.0 °F 87% 29.90 in 2.0 mi Calm Calm - N/A   Overcast
10:51 AM 60.1 °F 55.9 °F 86% 29.89 in 2.0 mi ENE 4.6 mph - 0.00 in Rain Light Rain
11:51 AM 60.1 °F 57.0 °F 90% 29.88 in 2.0 mi Calm Calm - 0.01 in Rain Light Rain
12:51 PM 61.0 °F 57.0 °F 87% 29.87 in 2.0 mi ENE 5.8 mph - 0.03 in   Overcast
1:28 PM 62.1 °F 57.9 °F 86% 29.86 in 2.0 mi Variable 3.5 mph - N/A   Overcast
1:32 PM 63.0 °F 59.0 °F 87% 29.86 in 5.0 mi Variable 3.5 mph - N/A   Overcast
1:51 PM 63.0 °F 59.0 °F 87% 29.86 in 5.0 mi Calm Calm - N/A   Mostly Cloudy
2:51 PM 66.9 °F 60.1 °F 79% 29.84 in 5.0 mi SSE 6.9 mph - N/A   Haze
3:51 PM 69.1 °F 59.0 °F 70% 29.82 in 5.0 mi East 5.8 mph - N/A   Haze
4:51 PM 69.1 °F 59.0 °F 70% 29.81 in 8.0 mi Variable 5.8 mph - N/A   Mostly Cloudy
5:51 PM 68.0 °F 57.9 °F 70% 29.81 in 9.0 mi SSE 6.9 mph - N/A   Overcast
6:51 PM 64.9 °F 57.0 °F 75% 29.81 in 9.0 mi SSE 6.9 mph - N/A   Mostly Cloudy
7:51 PM 60.1 °F 55.0 °F 83% 29.82 in 8.0 mi SE 5.8 mph - N/A   Mostly Cloudy
8:25 PM 57.9 °F 54.0 °F 87% 29.83 in 9.0 mi ESE 8.1 mph - N/A   Overcast
8:36 PM 57.9 °F 54.0 °F 87% 29.83 in 10.0 mi SE 9.2 mph - N/A   Overcast
8:51 PM 57.9 °F 55.0 °F 90% 29.83 in 10.0 mi ESE 9.2 mph - N/A   Overcast
9:51 PM 55.9 °F 54.0 °F 93% 29.86 in 10.0 mi SE 6.9 mph - N/A   Overcast
10:51 PM 55.9 °F 54.0 °F 93% 29.84 in 10.0 mi ESE 5.8 mph - N/A   Overcast
11:51 PM 55.9 °F 54.0 °F 93% 29.84 in 7.0 mi SE 5.8 mph - N/A   Overcast